Regional Weather Roundup
Issued by NWS

Home | Current Version | Previous Version | Text Only | Print | Product List | Glossary On
Versions: 1 2 3 4 5 6 7 8 9 10 11 12 13 14 15 16 17 18 19 20 21 22 23 24 25 26 27 28 29 30 31 32 33 34 35 36 37 38 39 40 41 42 43 44 45 46 47 48 49 50
000
ASUS45 KTFX 182019
RWRMT
MONTANA HOURLY WEATHER ROUNDUP
NATIONAL WEATHER SERVICE GREAT FALLS MT
219 PM MDT THU SEP 18 2014

NOTE: "FAIR" INDICATES FEW OR NO CLOUDS BELOW 12000 FEET WITH NO
SIGNIFICANT WEATHER AND/OR OBSTRUCTIONS TO VISIBILITY.

* THESE STATIONS ARE NOT UNDER NWS QUALITY CONTROL. THEY DO NOT
   REPORT WEATHER SUCH AS PRECIPITATION OR FOG.

MTZ001>007-043-182100-
WEST OF THE DIVIDE
CITY           SKY/WX    TMP DP  RH WIND       PRES   REMARKS
KALISPELL      SMOKE     73  50  44 S6        29.71F
MISSOULA       HAZE      73  50  44 SE10      29.79F
BUTTE          CLOUDY    66  50  56 VRB6      29.94R
MULLAN PASS    CLOUDY    57  36  46 VRB5G17   29.93R
* ESSEX        N/A       74  43  33 SE4G13     N/A
* LINCOLN      N/A       63  41  45 SE4G13     N/A
* LOOKOUT PASS N/A       66  39  37 SE11G19    N/A
* POLSON       N/A       74  47  38 SW3G11     N/A
* RONAN APT    PTCLDY    79  46  31 SE13G18    N/A
* SEELEY LAKE  N/A       63  53  70 N3         N/A
* THOMP F APT  PTCLDY    67  47  49 S6G13      N/A
$$

MTZ008-052>055-182100-
SOUTHWEST MONTANA
CITY           SKY/WX    TMP DP  RH WIND       PRES   REMARKS
BOZEMAN        CLOUDY    66  57  73 NW5       29.89F
DILLON         PTSUNNY   70  54  57 S7        29.92F
W YELLOWSTONE  PTSUNNY   63  52  68 NE5       30.02F
* THREE FORKS  CLOUDY    66  66 100 N/A        N/A
* BOULDER HILL N/A       63  47  56 S9         N/A
* MONIDA PASS  N/A       66  47  51 SE17       N/A
* RAYNOLDS PAS N/A       66  44  45 SE15G22    N/A
* WHITEHALL    N/A       63  57  81 SE2G7      N/A
* WISE RIVER   N/A       66  49  54 S2G9       N/A
$$

MTZ009>010-012-014-046-048-049-054-182100-
EAST SLOPES AND CENTRAL MONTANA
CITY           SKY/WX    TMP DP  RH WIND       PRES   REMARKS
CUT BANK       HAZE      73  45  37 SW9G21    29.70F
GREAT FALLS    CLOUDY    72  45  38 SW12      29.75F
HELENA         CLOUDY    73  50  44 S5        29.82F
MALMSTROM AFB  CLOUDY    72  45  38 SW15      29.76F
* CONRAD       CLOUDY    72  52  49 S16G23     N/A
* EAST GLACIER N/A       70  43  38 W18G35     N/A
* MONARCH      N/A       68  42  39 SW10G17    N/A
* PENDROY      N/A       68  48  49 S6         N/A
* ROGERS PASS  N/A       65  40  40 SE10G16    N/A
* SAINT MARY   N/A       71  43  37 SW8G25     N/A
* SWEET GRASS  N/A       73  41  32 SW26G35    N/A
* WHITE SULPH  N/A       65  51  61 S15G20     N/A
$$

MTZ011-013-016-021-035-040-045-047-050-051-182100-
NORTH CENTRAL MONTANA
CITY           SKY/WX    TMP DP  RH WIND       PRES   REMARKS
HAVRE          CLOUDY    75  48  39 SW18      29.67S
LEWISTOWN      HAZE      81  48  32 W13       29.78F
* CHINOOK      CLOUDY    79  48  34 SW17G24   29.63F
* CHESTER      N/A       72  46  40 W8G13      N/A
* DENTON       N/A       78  54  44 SW8        N/A
* GEYSER       N/A       75  49  40 SW20G26    N/A
* JUDITH GAP   N/A       70  52  53 S12G17     N/A
* LOMA         N/A       71  53  53 N/A        N/A
$$

MTZ017>020-022>027-061-062-182100-
NORTHEAST MONTANA
CITY           SKY/WX    TMP DP  RH WIND       PRES   REMARKS
GLASGOW        CLOUDY    73  55  53 S5        29.64F
GLENDIVE       CLOUDY    75  55  50 SW12      29.71F
JORDAN         CLOUDY    72  54  53 W8        29.66F
SIDNEY         CLOUDY   N/A N/A N/A S14       29.66F
WOLF POINT     CLOUDY    75  55  50 W6        29.63F
* BEAVER HILL  N/A       82  54  38 SW20       N/A
* CIRCLE       N/A       75  53  46 SW16       N/A
* LINDSAY DVD  N/A       76  50  40 SW21G34    N/A
* NAVAJO       N/A       77  54  45 SW12       N/A
* SACO         N/A       72  58  62 S4         N/A
$$

MTZ028>042-056>058-182100-
SOUTHCENTRAL AND SOUTHEAST MONTANA
CITY           SKY/WX    TMP DP  RH WIND       PRES   REMARKS
BAKER          CLOUDY    82  54  38 W12       29.76S
BILLINGS       CLOUDY    66  57  73 SW17      29.83S
LIVINGSTON     PTSUNNY   72  54  53 NW8       29.86F
MILES CITY     CLOUDY    75  50  42 W13       29.73F
* LAUREL APT   CLOUDY    66  57  73 SW7        N/A
* ROUNDUP APT  CLOUDY    72  55  55 SW14G21    N/A
* ALZADA       N/A       85  52  32 E4         N/A
* HYSHAM       N/A       69  52  55 W8         N/A
* LAME DEER    N/A       72  49  44 W14G21     N/A
* REED POINT   N/A       74  53  48 W5         N/A
$$

REGIONAL REPORTS...DAKOTAS
CITY           SKY/WX    TMP DP  RH WIND       PRES   REMARKS
WILLISTON      CLOUDY    82  55  40 S9        29.64F HI  81
DICKINSON      PTSUNNY   77  57  50 S15       29.72F
BEACH          N/A       81  54  39 W12G17    29.74F
CROSBY         SUNNY     81  54  39 S17G23    29.61F
TIOGA          SUNNY     81  55  41 S15G24    29.68F HI  81
WATFORD CITY   SUNNY     81  54  39 S13G20    29.64F
BISMARCK       PTSUNNY   82  61  49 S18G26    29.75F HI  83
GRAND FORKS    SUNNY     72  55  55 S15G24    29.85F
FARGO          SUNNY     72  57  59 S17G24    29.88F
BUFFALO SD     CLOUDY    81  55  41 S10       29.72F HI  81
RAPID CITY     PTSUNNY   86  55  35 SE12      29.79F
$$

REGIONAL REPORTS...WYOMING/IDAHO/WASHINGTON
CITY           SKY/WX    TMP DP  RH WIND       PRES   REMARKS
GILLETTE       PTCLDY    90  43  19 NW7       29.83F
SHERIDAN       CLOUDY    82  50  33 CALM      29.84S
CODY           CLOUDY   N/A N/A N/A N/A        N/A
YELLOWSTONE LA PTSUNNY   54  50  86 CALM      30.14S
SALMON         CLOUDY    63  54  73 CALM      29.88F
MULLAN PASS    CLOUDY    57  36  46 VRB5G17   29.93S
SAND POINT     CLOUDY    72  48  43 S9        29.75R
SPOKANE        PTSUNNY   79  43  28 SW17G24   29.75F
$$

REGIONAL REPORTS...ALBERTA
CITY           SKY/WX    TMP DP  RH WIND       PRES   REMARKS
CALGARY        PTSUNNY   70  52  53 N12G17    29.60F
LETHBRIDGE     PTSUNNY   82  43  25 SW8       29.59F
MEDICINE HAT   CLOUDY    72  54  53 SW9       29.57F
EDMONTON       LGT RAIN  63  50  63 NW6       29.61S
WATERTON GATE  N/A       75  41  30 SW16G22    N/A
CARDSTON       N/A       77  46  33 S9G17      N/A
MILK RIVER     N/A       75  45  34 SW22G29    N/A
$$

REGIONAL REPORTS...SASKATCHEWAN
CITY           SKY/WX    TMP DP  RH WIND       PRES   REMARKS
SWIFT CURRENT  PTCLDY    82  43  25 W17G23    29.55F
MOOSE JAW      PTSUNNY   79  55  44 SW14      29.55F
REGINA         CLOUDY    77  57  50 S15       29.55F
VAL MARIE      N/A       72  57  59 S12        N/A
ASSINIBOIA     N/A       77  50  39 W15        N/A
CORONACH       N/A       79  50  36 W10        N/A

$$



USA.gov is the U.S. government's official web portal to all federal, state and local government web resources and services.